Regional Weather Roundup
Issued by NWS

Home | Current Version | Previous Version | Text Only | Print | Product List | Glossary On
Versions: 1 2 3 4 5 6 7 8 9 10 11 12 13 14 15 16 17 18 19 20 21 22 23 24 25 26 27 28 29 30 31 32 33 34 35 36 37 38 39 40 41 42 43 44 45 46 47 48 49 50
000
ASUS46 KSEW 291110
RWRWA

WASHINGTON REGIONAL WEATHER ROUNDUP
NATIONAL WEATHER SERVICE SEATTLE WA
400 AM PDT TUE JUL 29 2014

NOTE:"FAIR" INDICATES FEW OR NO CLOUDS BELOW 12,000 FEET WITH NO
SIGNIFICANT WEATHER AND/OR OBSTRUCTIONS TO VISIBILITY.

WAZ505-507>509-291200-
SEATTLE, TACOMA, EVERETT, AND VICINITY

CITY           SKY/WX    TMP DP  RH WIND       PRES   REMARKS
EVERETT        CLEAR     60  51  72 NE5       30.11R
BOEING FIELD   CLEAR     65  52  62 CALM      30.09R
RENTON         CLEAR     64  57  78 CALM      30.09R
SEATAC AIRPORT CLEAR     64  50  60 CALM      30.11R
JBLM-MCCHORD   CLEAR     55  51  87 S3        30.11R
PUYALLUP       FAIR      54  54 100 CALM      30.11S
JBLM-FT LEWIS  CLEAR     56  51  83 SE6       30.10R
TACOMA NARROWS CLEAR     61  51  70 CALM      30.11R
$$

WAZ001-503-506-510-514-515-291200-
NORTH INTERIOR

CITY           SKY/WX    TMP DP  RH WIND       PRES   REMARKS
BELLINGHAM     CLEAR     55  52  89 CALM      30.08S
FRIDAY HARBOR  CLEAR     49  48  97 CALM      30.10R
EASTSOUND      CLEAR     57  52  82 MISG      30.07R
PORT ANGELES   CLEAR     53  51  93 NW8       30.10S
NAS WHIDBEY    PTCLDY    55  51  86 S7        30.11R
BURLINGTON     CLEAR     55  54  94 CALM      30.11R
$$

WAZ020-022-039-040-504-511-512-291200-
SOUTHWEST INTERIOR

CITY           SKY/WX    TMP DP  RH WIND       PRES   REMARKS
SHELTON        CLOUDY    54  52  93 W3        30.10R
OLYMPIA        CLEAR     55  53  93 CALM      30.11R
CHEHALIS       FAIR      55  55 100 CALM      30.11S
KELSO          CLEAR     57  52  82 CALM      30.14S
VANCOUVER      CLEAR     65  51  60 VRB3      30.07R
SCAPPOOSE, OR  CLEAR     63  51  65 N6        30.07R
PORTLAND, OR   CLEAR     66  53  63 N6        30.07S
$$

WAZ021-516-517-291200-
WASHINGTON COAST

CITY           SKY/WX    TMP DP  RH WIND       PRES   REMARKS
FORKS          CLOUDY    55  55 100 N3        30.14S
HOQUIAM        CLOUDY    53  52  96 CALM      30.13S
ASTORIA, OR    CLOUDY    57  54  89 W5        30.13S
$$

WAZ019-023-024-040-518-519-291200-
CASCADE MOUNTAINS AND COLUMBIA GORGE

CITY           SKY/WX    TMP DP  RH WIND       PRES   REMARKS
STAMPEDE PASS  NOT AVBL
TROUTDALE, OR  CLEAR     62  58  86 CALM      30.06R
THE DALLES, OR CLEAR     71  57  61 NW7       29.99R
$$

WAZ026-027-041>044-520-521-291200-
EAST SLOPES

CITY           SKY/WX    TMP DP  RH WIND       PRES   REMARKS
OMAK           CLEAR     73  40  30 N10       30.01S
WENATCHEE      CLEAR     78  52  40 W7        30.01R
ELLENSBURG     CLEAR     65  52  62 NE3       30.05R
YAKIMA         CLEAR     70  54  56 W7        30.01R
$$

WAZ028-034-035-291200-
COLUMBIA BASIN

CITY           SKY/WX    TMP DP  RH WIND       PRES   REMARKS
EPHRATA        CLEAR     72  42  34 E6        29.98R
MOSES LAKE     CLEAR     65  45  48 N3        29.99R
PASCO          CLEAR     61  58  90 N6        29.96R
HERMISTON, OR  CLEAR     63  49  60 SE6       29.97R
$$

WAZ036>038-291200-
NORTHEAST WASHINGTON

CITY           SKY/WX    TMP DP  RH WIND       PRES   REMARKS
SPOKANE GEIGER CLEAR     71  43  36 E3        30.06S
SPOKANE FELTS  CLEAR     65  51  60 NE5       30.06R
FAIRCHILD AFB  CLEAR     66  46  48 E7        30.07R
COEURDALENE,ID CLEAR     63  48  59 SE8       30.07R
DEER PARK      CLEAR     64  48  56 CALM      30.06S
$$

WAZ029>033-291200-
SOUTHEAST WASHINGTON

CITY           SKY/WX    TMP DP  RH WIND       PRES   REMARKS
PULLMAN        CLEAR     58  46  64 CALM      30.09R
LEWISTON, ID   CLEAR     74  43  32 CALM      30.01R
WALLA WALLA    CLEAR     74  46  36 CALM      30.00R
PENDLETON, OR  CLEAR     67  45  45 E8        30.02R
$$



USA.gov is the U.S. government's official web portal to all federal, state and local government web resources and services.